Theta_e
338 340 341 341 341 342 342 342 338 338 336 337 341 351 352 351 351 351 350 351 350 351 351 350 351 350 351 355 357 358 357 356 355 356 357 357 356 356 355 353 356 354 352 352
338 339 340 341 341 339 340 337 337 337 336 335 340 342 348 350 348 352 350 350 351 351 351 352 351 351 351 354 359 359 360 361 357 359 359 357 354 354 354 354 354 354 357 355
339 339 339 342 341 338 337 337 339 340 337 336 338 336 352 348 346 346 351 350 348 351 351 352 351 352 351 352 356 360 360 362 363 361 361 360 358 357 357 357 356 355 357 359
337 338 340 342 339 336 337 340 337 335 335 337 338 339 341 345 342 345 345 351 348 350 352 350 350 348 347 352 354 357 361 363 365 365 363 361 360 360 360 359 358 357 356 358
334 338 341 340 337 338 339 339 337 334 335 336 338 338 353 355 352 352 347 346 347 350 355 351 345 344 346 350 351 357 361 364 363 365 364 363 361 359 358 357 356 357 356 356
332 337 339 339 338 338 337 336 336 335 335 337 337 339 355 352 348 351 352 348 347 350 354 349 345 346 350 351 354 357 361 363 363 364 364 364 362 362 360 357 355 354 354 354
331 334 338 340 338 339 337 336 337 339 344 340 339 340 348 347 348 349 354 350 348 355 340 344 349 349 353 356 354 361 364 364 364 363 362 361 360 360 359 357 355 356 354 354
331 334 338 340 338 340 336 335 337 343 344 343 340 354 349 346 345 348 352 351 349 357 355 353 353 352 357 356 357 361 363 364 364 364 364 363 361 361 357 356 355 353 355 356
332 333 336 338 337 338 339 340 337 337 338 340 342 347 346 348 347 351 354 354 355 356 356 356 356 356 357 354 355 359 363 362 361 363 363 361 359 358 357 356 357 355 353 355
331 336 336 338 336 336 338 339 339 335 336 334 348 355 359 360 359 354 356 357 358 358 357 355 356 352 350 348 351 354 356 356 354 353 354 353 352 351 353 355 356 355 351 351
329 333 337 339 337 338 339 336 337 336 335 340 345 353 350 352 348 358 358 359 360 359 356 353 352 350 350 350 351 352 352 351 352 348 348 348 346 347 349 350 350 352 352 351
329 334 337 339 336 336 336 334 335 334 335 344 339 346 343 345 343 341 353 358 355 356 352 352 353 354 355 353 352 351 350 349 346 345 346 348 351 351 353 353 352 350 349 348
333 336 337 338 336 336 335 336 336 333 338 344 342 356 343 347 347 352 356 359 358 362 358 355 352 352 351 347 345 342 342 341 341 341 342 342 344 344 344 344 344 346 349 349
336 334 340 342 339 338 336 335 337 336 345 344 347 354 343 348 350 353 356 356 358 357 355 354 351 350 345 342 340 338 338 337 338 338 340 341 341 341 342 341 343 344 345 347
331 339 344 343 342 338 340 339 338 339 336 342 348 347 347 349 351 353 355 359 354 353 351 348 348 343 340 339 338 338 337 337 337 337 338 340 339 338 338 337 336 337 338 339
332 340 341 343 340 337 339 337 337 337 334 337 351 352 351 353 353 353 358 355 353 349 346 343 340 339 338 336 335 336 335 335 337 337 335 332 331 331 332 332 332 332 332 334
333 336 341 341 337 339 338 336 336 338 337 337 345 357 353 353 354 354 352 351 349 346 343 340 338 336 335 333 334 335 334 335 332 331 329 328 328 326 326 327 327 327 327 328
336 342 339 339 340 337 338 338 337 337 336 335 337 345 348 352 351 350 349 347 344 342 339 337 335 334 333 333 332 332 332 331 329 326 325 325 325 326 326 325 325 324 323 323
334 339 341 340 339 340 341 338 336 336 339 337 342 344 348 347 347 347 344 342 340 338 336 334 333 332 334 332 330 330 326 325 325 324 324 323 323 322 323 325 326 325 325 324
335 336 338 338 347 345 345 342 337 335 341 338 341 343 345 345 347 347 340 338 337 335 334 332 331 332 331 328 325 322 323 325 324 323 321 321 323 324 324 323 322 322 322 321
338 342 339 338 338 346 342 338 338 341 346 339 338 339 341 344 348 342 338 337 335 333 332 331 331 330 326 322 321 322 325 323 321 320 321 321 320 320 321 321 321 321 320 319
343 342 342 345 350 353 341 341 343 346 340 337 337 339 346 344 341 340 338 336 334 332 330 329 327 322 320 321 321 323 324 322 320 320 320 320 320 321 320 319 319 319 319 318
341 343 351 351 353 345 341 345 339 339 340 338 339 341 343 341 340 338 337 335 332 330 325 320 319 318 318 318 320 323 324 321 320 320 323 322 320 319 319 318 318 318 317 317
346 343 347 349 344 344 343 343 340 340 339 339 338 340 340 340 338 336 334 333 329 322 319 318 316 316 317 318 320 322 323 321 320 320 321 321 321 320 319 318 317 316 316 314
344 347 354 348 350 346 342 340 340 339 339 339 338 338 338 337 336 335 333 328 323 320 318 317 316 316 316 317 319 319 319 320 319 320 319 318 318 319 319 318 317 316 315 313
342 345 343 349 349 347 347 341 339 339 339 338 338 336 335 335 333 332 327 323 321 319 318 318 316 316 316 317 317 317 317 318 319 320 317 315 316 316 317 316 316 316 315 314
Wind_Speed
17 13 15 19 13 11 17 18 10 10 9 3 6 20 19 17 18 16 16 16 16 16 15 17 14 19 19 25 22 19 14 16 15 15 16 16 18 16 16 18 16 18 21 18
17 17 22 7 6 3 11 9 4 7 4 7 6 11 17 18 15 20 15 17 17 18 16 18 16 16 15 19 26 24 19 16 21 16 18 21 17 17 18 18 17 16 17 17
20 21 20 3 9 8 10 9 2 7 8 10 8 11 21 20 16 12 20 19 19 19 19 17 14 13 9 11 17 22 21 20 20 18 15 11 11 13 14 14 20 18 16 17
20 25 19 13 14 14 10 12 7 2 9 10 10 11 8 14 6 8 13 21 20 18 20 16 11 15 14 9 10 14 18 17 16 16 15 15 14 12 13 15 15 15 14 17
20 20 21 13 13 10 3 6 12 6 10 15 15 5 5 22 21 27 12 16 14 11 22 19 12 16 17 14 13 10 15 12 9 15 15 11 14 16 19 19 16 11 13 16
21 19 15 15 14 6 8 6 11 11 11 12 5 1 10 6 16 13 15 9 11 16 17 15 18 16 12 15 12 17 13 9 8 6 7 9 13 12 13 13 12 13 16 16
18 23 18 11 16 4 11 13 10 9 7 10 8 5 6 19 27 29 21 8 7 29 29 18 16 19 12 5 8 23 16 9 6 5 5 6 9 10 13 12 13 14 10 16
14 17 22 16 16 12 14 17 10 7 8 8 15 8 6 12 25 24 11 7 3 21 28 22 12 12 12 13 16 21 13 11 7 3 1 3 5 8 8 8 9 10 12 9
16 19 22 14 12 17 12 17 17 14 19 13 9 7 12 13 9 12 12 12 9 13 13 12 11 16 17 13 17 15 13 11 7 4 1 3 5 6 9 10 9 9 11 11
21 12 19 17 18 21 18 10 12 8 7 8 8 10 6 17 14 4 11 13 14 15 15 13 14 15 16 16 15 14 12 9 4 3 1 2 3 4 6 7 7 8 10 10
24 18 14 19 19 21 11 10 14 17 6 1 2 1 8 20 9 6 8 13 14 12 13 12 12 16 15 13 12 12 10 6 6 9 6 5 5 6 6 9 9 12 11 12
25 14 13 27 20 17 16 20 18 9 9 6 5 0 10 14 20 28 33 14 14 11 16 16 16 19 15 15 13 11 16 13 15 15 17 19 15 19 19 18 13 13 12 9
20 18 11 10 16 12 18 14 17 7 8 7 3 5 19 28 19 24 16 19 12 17 17 12 18 20 18 16 16 18 17 16 17 14 16 17 16 19 22 24 24 23 20 17
18 20 13 9 14 9 25 16 15 11 5 7 6 7 9 26 6 8 17 15 16 13 16 12 12 15 14 12 10 10 10 9 11 15 15 15 15 17 18 20 21 22 22 21
16 5 5 13 17 9 7 7 13 23 7 11 18 14 14 22 10 10 11 19 17 13 13 12 8 8 4 7 2 6 11 13 11 13 14 16 18 19 20 21 22 22 23 23
18 9 15 22 28 6 17 12 15 24 5 7 23 19 23 7 10 10 13 12 14 12 12 9 6 7 4 1 5 9 11 11 12 14 15 18 19 19 19 20 22 22 23 23
19 14 10 12 18 16 10 18 28 6 5 7 9 16 13 11 11 11 10 11 13 9 9 6 5 6 5 7 14 13 12 12 13 14 14 15 16 18 19 19 20 21 24 26
19 17 9 8 15 11 9 8 5 9 9 7 7 11 12 12 11 11 11 12 11 9 7 4 5 5 7 11 12 11 9 10 11 14 14 15 17 18 20 21 21 23 23 24
21 17 9 5 5 5 7 5 6 5 11 7 13 11 13 12 14 11 11 11 10 8 7 5 6 5 8 8 8 9 13 10 12 14 16 17 17 19 19 20 19 20 21 22
23 17 12 3 5 4 4 9 15 6 10 9 12 10 11 12 7 10 11 10 9 8 9 5 4 8 8 10 9 8 9 12 14 17 15 16 16 17 18 20 21 20 21 22
17 6 11 11 6 6 15 10 9 6 8 7 8 9 9 5 10 15 12 10 9 7 9 4 6 9 10 8 8 8 12 13 14 14 15 16 18 18 16 19 20 19 19 23
14 15 16 3 6 7 5 10 3 5 7 8 7 9 18 16 15 13 11 9 9 7 5 8 9 8 9 9 9 8 11 12 14 14 15 15 17 16 17 19 18 19 17 20
8 3 1 5 5 7 3 8 5 7 8 6 9 13 15 14 13 12 10 9 8 6 9 8 7 8 9 9 9 9 9 12 14 17 13 13 15 17 17 18 19 20 19 17
6 10 6 10 7 14 14 4 5 10 9 10 10 12 12 13 12 10 8 8 9 9 8 7 7 8 9 9 9 10 10 11 13 15 15 15 15 16 15 17 19 19 20 21
2 13 14 13 20 15 11 11 12 13 12 13 12 10 11 12 10 11 9 9 9 8 7 7 7 8 9 9 10 12 13 11 13 13 12 14 16 18 18 16 16 17 18 18
4 7 6 8 17 8 13 13 14 14 14 13 13 12 10 12 10 13 10 10 9 8 7 6 6 7 8 9 10 12 12 13 14 13 14 14 13 13 15 16 17 16 18 20
Wind_Direction
224 236 239 243 295 181 229 209 194 130 129 249 225 157 171 186 180 171 178 169 182 186 176 165 187 176 157 163 169 180 191 191 188 191 193 215 230 236 241 243 253 253 248 249
231 224 248 319 264 255 267 239 76 104 167 221 206 204 175 179 195 177 185 173 191 181 165 157 189 186 174 169 170 178 187 191 198 206 211 222 226 237 247 248 250 244 252 247
226 225 240 205 238 248 237 263 245 163 189 256 239 226 163 177 177 200 179 184 187 179 166 164 182 171 194 195 166 175 185 196 201 213 227 223 230 235 257 251 252 251 242 249
221 245 231 205 255 210 244 325 295 228 217 216 236 282 162 141 178 204 207 193 193 175 159 147 164 180 204 179 174 187 177 184 203 215 233 229 235 247 249 255 254 240 242 239
229 232 249 203 216 260 68 249 271 229 278 277 199 242 139 78 50 296 230 216 227 158 162 139 164 172 187 164 177 167 159 165 204 212 225 247 240 250 260 257 254 264 247 244
243 231 237 215 238 206 271 242 240 247 249 260 319 252 114 138 161 278 282 217 246 194 127 107 145 164 175 189 156 141 134 150 180 204 232 251 272 282 281 283 283 271 257 252
237 248 220 236 226 189 245 246 233 223 307 266 230 240 140 162 156 203 243 217 235 102 115 220 190 174 179 137 134 120 124 143 158 190 234 262 279 282 288 289 281 281 269 249
213 227 223 189 224 213 217 234 250 276 230 321 287 62 198 201 198 189 167 161 124 143 155 190 167 174 116 109 95 101 118 131 121 112 358 312 303 291 280 283 322 318 309 325
209 228 222 188 216 245 249 261 266 269 238 230 180 114 144 338 157 147 148 132 127 88 103 118 133 121 105 113 102 107 102 97 100 119 105 280 282 284 293 305 309 301 306 310
252 210 232 186 200 223 236 274 278 277 271 283 76 95 115 39 324 327 148 136 129 109 98 91 90 111 125 109 108 101 94 93 93 342 280 324 308 280 294 295 291 305 322 322
246 254 183 228 206 223 213 244 255 270 277 14 54 223 164 184 190 342 235 124 111 120 112 119 102 98 109 119 128 113 99 68 55 47 7 294 279 281 285 286 293 287 294 295
235 249 227 203 203 212 239 220 234 245 250 69 12 124 244 211 164 176 252 133 142 134 142 146 125 101 80 61 61 60 46 34 11 10 357 8 1 357 354 347 329 306 287 296
229 243 225 210 198 199 225 231 247 287 50 32 53 2 337 326 158 183 112 95 80 80 79 54 66 66 68 59 44 39 50 21 1 357 353 350 349 351 344 340 342 340 328 318
236 260 176 188 230 303 212 227 319 183 95 300 75 171 142 273 52 99 109 107 102 94 87 75 44 66 56 52 48 38 44 41 356 3 345 338 356 346 338 332 332 337 338 337
236 196 73 11 307 71 63 64 334 316 84 196 125 113 242 246 153 123 115 117 103 98 97 80 110 90 108 143 125 54 27 22 5 354 340 4 8 1 352 347 342 340 337 331
224 189 146 186 240 142 122 128 265 274 15 34 132 158 197 196 119 130 114 126 110 106 98 99 133 173 143 46 47 38 19 7 5 8 7 2 355 345 339 336 335 334 332 332
220 226 215 187 185 168 202 183 207 130 67 58 70 115 126 110 108 108 110 118 105 115 123 113 84 61 29 13 55 29 11 15 6 355 2 346 345 336 329 327 330 335 335 333
210 224 237 222 207 191 77 72 157 80 75 53 103 107 109 114 115 118 122 111 113 99 95 83 50 12 8 28 21 9 4 23 12 2 352 343 337 337 342 341 340 336 331 330
206 217 228 173 223 18 51 71 146 136 113 111 107 111 109 121 112 107 100 106 103 106 104 57 45 31 57 34 19 13 29 8 8 353 347 344 340 334 332 324 335 337 335 327
211 210 228 160 133 142 347 306 32 2 93 97 112 130 135 143 201 138 125 122 108 83 78 35 38 62 60 43 31 15 20 27 360 347 338 334 335 336 336 337 335 334 334 329
219 191 242 234 204 78 169 221 283 286 108 100 122 137 149 127 88 123 116 102 97 76 74 43 65 61 63 41 21 13 36 15 352 345 343 345 342 337 335 335 335 334 336 333
208 179 230 174 110 115 330 322 317 105 140 121 115 124 105 117 122 120 107 102 80 67 62 60 68 59 48 37 18 18 36 8 1 357 357 352 351 351 348 344 339 340 340 338
189 115 92 62 133 165 248 238 125 152 117 127 131 125 132 135 128 133 121 102 85 81 67 62 54 62 44 29 18 15 36 6 355 350 345 4 3 1 360 357 355 354 350 351
87 75 119 110 167 166 170 186 131 122 125 110 115 116 139 130 124 121 109 105 99 80 69 54 44 42 38 22 13 21 29 2 348 350 349 4 357 357 14 7 7 4 8 356
34 140 117 113 163 163 141 154 122 116 119 117 116 128 119 120 113 115 108 98 99 87 73 65 45 40 31 19 18 11 360 357 348 342 4 2 360 353 6 4 7 9 7 12
42 286 137 111 153 146 146 132 133 131 126 123 113 104 97 110 113 107 111 113 103 90 78 58 50 42 29 18 17 10 358 354 342 350 10 352 359 360 358 354 351 349 356 4